Location: Boiro
(42.6475°N, 8.8834°W)
Time: 14:20:39
(UTC+02:00)

Explorer 7 - Pass Details

Date: 30 June 2022
Orbit: 482 x 668 km, 50.3° (Epoch: 15 August)

Event Time Altitude Azimuth Distance (km) Brightness Sun altitude
Rises 04:37:39 0° 290° (WNW) 2,980 10.5 -18.7°
Reaches altitude 10° 04:40:16 10° 300° (WNW) 2,048 9.7 -18.5°
Maximum altitude 04:44:29 32° 4° (N) 1,090 8.9 -18.1°
Drops below altitude 10° 04:48:32 10° 68° (ENE) 1,955 10.4 -17.7°
Sets 04:50:58 0° 79° (ENE) 2,822 11.1 -17.5°
